Regional Weather Roundup
Issued by NWS

Home | Current Version | Previous Version | Graphics & Text | Print | Product List | Glossary On
Versions: 1 2 3 4 5 6 7 8 9 10 11 12 13 14 15 16 17 18 19 20 21 22 23 24 25 26 27 28 29 30 31 32 33 34 35 36 37 38 39 40 41 42 43 44 45 46 47 48 49 50
000
ASUS43 KLSX 231459
RWRMO

WEATHER SUMMARY FOR MISSOURI
NATIONAL WEATHER SERVICE SPRINGFIELD MO
1000 AM CDT TUE MAY 23 2017

NOTE: "FAIR" INDICATES FEW OR NO CLOUDS BELOW 12,000 FEET WITH NO
       SIGNIFICANT WEATHER AND/OR OBSTRUCTIONS TO VISIBILITY.
       CURRENT SKY AND/OR WEATHER CONDITIONS ARE NOT AVAILABLE FOR
       CHILLICOTHE AND FARMINGTON.

MOZ001>031-035>038-043-044-053-054-231600-
...NORTHERN AND WESTERN MISSOURI...

CITY           SKY/WX    TMP DP  RH WIND       PRES   REMARKS
KANSAS CTY INT MOSUNNY   60  50  69 N14       29.89F
KANSAS C DTWN  CLOUDY    59  49  69 N9G18     29.88F
LEE`S SUMMIT   PTSUNNY   57  53  86 N15       29.89S
ST JOSEPH      MOSUNNY   60  51  72 NW13      29.89F
CHILLICOTHE      N/A     57  51  80 VRB5      29.87F
KIRKSVILLE     CLOUDY    54  52  93 NW6       29.84S

$$
MOZ066>068-077>081-088>096-101>105-231600-
...SOUTHWEST MISSOURI...

CITY           SKY/WX    TMP DP  RH WIND       PRES   REMARKS
SPRINGFIELD    PTSUNNY   65  57  75 N15       29.83S
JOPLIN         PTSUNNY   67  58  72 N12G18    29.86F
BRANSON        PTSUNNY   64  59  82 NW9       29.84F

$$
MOZ032>034-039>042-045>050-055>058-069>072-231600-
...CENTRAL MISSOURI...

CITY           SKY/WX    TMP DP  RH WIND       PRES   REMARKS
COLUMBIA       CLOUDY    60  58  92 NW8       29.81F
JEFFERSON CITY CLOUDY    63  56  78 NW10      29.81F
ROLLA          CLOUDY    60  59  96 W10       29.80S
SEDALIA        CLOUDY    59  58  96 W5        29.85F
WARRENSBURG    CLOUDY    55  54  94 NW10      29.86S
OSAGE BEACH    PTSUNNY   63  58  83 VRB6      29.82F

$$
MOZ051-052-059>065-231600-
...EAST CENTRAL MISSOURI...

CITY           SKY/WX    TMP DP  RH WIND       PRES   REMARKS
ST LOUIS INTL  CLOUDY    70  54  56 VRB5      29.78F
SPIRIT OF STL  LGT RAIN  65  58  78 W5        29.78F
ST CHARLES     CLOUDY    64  58  80 VRB3      29.78F

$$
MOZ072>076-082>087-097>100-106>115-231600-
...SOUTH CENTRAL AND SOUTHEAST MISSOURI...

CITY           SKY/WX    TMP DP  RH WIND       PRES   REMARKS
CAPE GIRARDEAU CLOUDY    69  56  62 SW6       29.78F
FARMINGTON     PTSUNNY   66  53  63 CALM      29.80F
POPLAR BLUFF   CLOUDY    69  56  62 VRB3      29.78F
WEST PLAINS    CLOUDY    64  57  78 VRB3      29.81F

$$




USA.gov is the U.S. government's official web portal to all federal, state and local government web resources and services.